Location: Unspecified
(0.0000°N, 0.0000°E)
Time: 07:29:50
(UTC+02:00)

Delta 168 - Visible Passes

Search period start: 29 April 2017 00:00
Search period end: 09 May 2017 00:00
Orbit: 394 x 2065 km, 25.3° (Epoch: 27 April)

Date Brightness Start Highest point End Pass type
(mag) Time Alt. Az. Time Alt. Az. Time Alt. Az.
29 Apr 6.6 20:34:09 10° SW 20:39:26 14° S 20:44:04 10° SSE visible
29 Apr 6.7 22:36:22 10° SSW 22:36:49 11° SSW 22:36:49 11° SSW visible
30 Apr 6.6 20:22:55 10° SW 20:28:47 15° S 20:33:56 10° SSE visible
30 Apr 6.6 22:24:32 10° SSW 22:26:54 14° SSW 22:26:54 14° SSW visible
01 May 6.6 20:11:40 10° SW 20:18:08 16° S 20:23:47 10° SSE visible
01 May 6.4 22:12:49 10° SSW 22:17:01 17° S 22:17:01 17° S visible
02 May 6.2 22:01:11 10° SW 22:07:11 21° S 22:07:11 21° S visible
03 May 6.0 21:49:35 10° SW 21:57:23 24° S 21:57:23 24° S visible
04 May 5.8 21:38:01 10° SW 21:47:02 28° SSE 21:47:39 27° SSE visible
04 May 7.0 23:37:17 10° SW 23:37:41 11° SW 23:37:41 11° SW visible
05 May 5.7 21:26:28 10° SW 21:36:16 31° SSE 21:38:00 29° SSE visible
05 May 6.7 23:25:55 10° SW 23:28:02 17° SW 23:28:02 17° SW visible
06 May 5.6 21:14:57 10° SW 21:25:27 35° SSE 21:28:26 30° SE visible
06 May 6.4 23:14:32 10° WSW 23:18:29 25° SW 23:18:29 25° SW visible
07 May 5.6 21:03:28 10° SW 21:14:35 39° SSE 21:18:58 27° ESE visible
07 May 6.0 23:03:09 10° WSW 23:09:01 35° WSW 23:09:01 35° WSW visible
08 May 5.7 20:52:00 10° SW 21:03:39 43° SSE 21:09:37 23° ESE visible
08 May 5.5 22:51:47 10° WSW 22:59:40 48° WSW 22:59:40 48° WSW visible
